When you browse on this site, cookies collect data to enhance your experience and personalize the content and advertising you see.
Visit our Privacy Policy to learn more. By continuing to use the site, you agree to this use of cookies and data.
  • In Italy
  • List of Countries
  • For 7 days
  • Water Temperature
  • Satellite Maps
  • Weather Map
  • Weather Widgets
  • user-avatar
    Login

    Hourly Weather Djelfa

    Today, 26 March, Tuesday

    Time Temperature Precipitation Wind Pressure Humidity
    00:00 +14°C° 0 mm 2 mps 664 mmHg 51%
    01:00 +13°C° 0 mm 2 mps 664 mmHg 52%
    02:00 +13°C° 0 mm 2 mps 663 mmHg 54%
    03:00 +13°C° 0 mm 2 mps 663 mmHg 56%
    04:00 +12°C° 0 mm 2 mps 663 mmHg 58%
    05:00 +12°C° 0 mm 2 mps 662 mmHg 60%
    06:00 +10°C° 0 mm 2 mps 662 mmHg 63%
    07:00 +13°C° 0 mm 2 mps 663 mmHg 55%
    08:00 +14°C° 0 mm 3 mps 664 mmHg 47%
    09:00 +17°C° 0 mm 4 mps 664 mmHg 39%
    10:00 +17°C° 0 mm 4 mps 664 mmHg 39%
    11:00 +17°C° 0 mm 4 mps 664 mmHg 38%
    12:00 +18°C° 0 mm 4 mps 664 mmHg 38%
    13:00 +18°C° 0 mm 4 mps 664 mmHg 40%
    14:00 +18°C° 0 mm 4 mps 663 mmHg 43%
    15:00 +17°C° 0 mm 3 mps 663 mmHg 45%
    16:00 +15°C° 0.6 mm 4 mps 662 mmHg 52%
    17:00 +14°C° 0.6 mm 5 mps 662 mmHg 58%
    18:00 +13°C° 0.6 mm 6 mps 662 mmHg 65%
    19:00 +12°C° 1 mm 5 mps 662 mmHg 71%
    20:00 +10°C° 1 mm 5 mps 662 mmHg 78%
    21:00 +9°C° 1 mm 5 mps 663 mmHg 84%
    22:00 +8°C° 1.2 mm 5 mps 663 mmHg 86%
    23:00 +8°C° 1.2 mm 5 mps 663 mmHg 87%

    Tomorrow, 27 March, Wednesday

    Time Temperature Precipitation Wind Pressure Humidity
    00:00 +7°C° 1.2 mm 4 mps 662 mmHg 89%
    01:00 +6°C° 1.1 mm 4 mps 662 mmHg 89%
    02:00 +6°C° 1.1 mm 4 mps 662 mmHg 89%
    03:00 +5°C° 1.1 mm 4 mps 662 mmHg 89%
    04:00 +5°C° 1.2 mm 4 mps 662 mmHg 88%
    05:00 +3°C° 1.2 mm 5 mps 662 mmHg 88%
    06:00 +3°C° 1.2 mm 5 mps 662 mmHg 87%
    07:00 +3°C° 0.8 mm 5 mps 662 mmHg 84%
    08:00 +3°C° 0.8 mm 5 mps 663 mmHg 82%
    09:00 +3°C° 0.8 mm 5 mps 663 mmHg 80%
    10:00 +3°C° 1.1 mm 5 mps 663 mmHg 77%
    11:00 +3°C° 1.1 mm 5 mps 663 mmHg 75%
    12:00 +3°C° 1.1 mm 5 mps 663 mmHg 73%
    13:00 +5°C° 0.1 mm 4 mps 663 mmHg 69%
    14:00 +5°C° 0.1 mm 4 mps 663 mmHg 66%
    15:00 +5°C° 0.1 mm 4 mps 663 mmHg 62%
    16:00 +5°C° 0.2 mm 4 mps 663 mmHg 63%
    17:00 +5°C° 0.2 mm 4 mps 663 mmHg 65%
    18:00 +5°C° 0.2 mm 4 mps 664 mmHg 66%
    19:00 +5°C° 1.1 mm 4 mps 664 mmHg 68%
    20:00 +5°C° 1.1 mm 3 mps 665 mmHg 70%
    21:00 +6°C° 1.1 mm 2 mps 665 mmHg 71%
    22:00 +6°C° 0.5 mm 2 mps 665 mmHg 72%
    23:00 +6°C° 0.5 mm 2 mps 665 mmHg 74%

    Day after tomorrow, 28 March, Thursday

    Time Temperature Precipitation Wind Pressure Humidity
    00:00 +6°C° 0.5 mm 2 mps 665 mmHg 75%
    01:00 +5°C° 0.1 mm 2 mps 665 mmHg 77%
    02:00 +5°C° 0.1 mm 2 mps 665 mmHg 80%
    03:00 +5°C° 0.1 mm 2 mps 665 mmHg 82%
    04:00 +5°C° 0.1 mm 2 mps 665 mmHg 84%
    05:00 +5°C° 0.1 mm 2 mps 665 mmHg 85%
    06:00 +6°C° 0.1 mm 1 mps 666 mmHg 87%
    07:00 +5°C° 0 mm 2 mps 666 mmHg 82%
    08:00 +6°C° 0 mm 2 mps 666 mmHg 78%
    09:00 +7°C° 0 mm 2 mps 667 mmHg 73%
    10:00 +8°C° 0 mm 2 mps 667 mmHg 66%
    11:00 +9°C° 0 mm 2 mps 667 mmHg 59%
    12:00 +10°C° 0 mm 2 mps 667 mmHg 51%
    13:00 +12°C° 0 mm 2 mps 667 mmHg 48%
    14:00 +12°C° 0 mm 1 mps 666 mmHg 45%
    15:00 +13°C° 0 mm 1 mps 666 mmHg 43%
    16:00 +12°C° 0 mm 2 mps 666 mmHg 43%
    17:00 +12°C° 0 mm 2 mps 666 mmHg 43%
    18:00 +12°C° 0 mm 2 mps 666 mmHg 43%
    19:00 +10°C° 0 mm 2 mps 667 mmHg 45%
    20:00 +10°C° 0 mm 3 mps 667 mmHg 48%
    21:00 +9°C° 0 mm 3 mps 668 mmHg 50%
    22:00 +9°C° 0 mm 3 mps 668 mmHg 53%
    23:00 +8°C° 0 mm 3 mps 667 mmHg 56%

    29 March, Friday

    Time Temperature Precipitation Wind Pressure Humidity
    00:00 +8°C° 0 mm 3 mps 667 mmHg 59%
    01:00 +8°C° 0 mm 3 mps 667 mmHg 60%
    02:00 +7°C° 0 mm 3 mps 667 mmHg 62%
    03:00 +7°C° 0 mm 2 mps 667 mmHg 64%
    04:00 +7°C° 0.1 mm 2 mps 667 mmHg 65%
    05:00 +7°C° 0.1 mm 2 mps 667 mmHg 65%
    06:00 +8°C° 0.1 mm 1 mps 667 mmHg 66%
    07:00 +7°C° 0 mm 2 mps 668 mmHg 61%
    08:00 +8°C° 0 mm 3 mps 668 mmHg 56%
    09:00 +8°C° 0 mm 4 mps 668 mmHg 51%
    10:00 +10°C° 0 mm 4 mps 668 mmHg 49%
    11:00 +11°C° 0 mm 4 mps 668 mmHg 48%
    12:00 +11°C° 0 mm 4 mps 668 mmHg 46%
    13:00 +12°C° 0 mm 4 mps 668 mmHg 45%
    14:00 +12°C° 0 mm 3 mps 668 mmHg 43%
    15:00 +13°C° 0 mm 3 mps 667 mmHg 42%
    16:00 +13°C° 0 mm 3 mps 667 mmHg 43%
    17:00 +12°C° 0 mm 3 mps 667 mmHg 45%
    18:00 +12°C° 0 mm 3 mps 667 mmHg 46%
    19:00 +11°C° 0 mm 4 mps 668 mmHg 49%
    20:00 +11°C° 0 mm 4 mps 668 mmHg 52%
    21:00 +9°C° 0 mm 5 mps 668 mmHg 56%
    22:00 +9°C° 0 mm 6 mps 668 mmHg 58%
    23:00 +8°C° 0 mm 6 mps 668 mmHg 59%

    30 March, Saturday

    Time Temperature Precipitation Wind Pressure Humidity
    00:00 +8°C° 0 mm 7 mps 668 mmHg 61%
    01:00 +7°C° 0 mm 6 mps 668 mmHg 63%
    02:00 +7°C° 0 mm 6 mps 667 mmHg 64%
    03:00 +5°C° 0 mm 6 mps 667 mmHg 66%
    04:00 +6°C° 0 mm 5 mps 667 mmHg 66%
    05:00 +6°C° 0 mm 5 mps 667 mmHg 67%
    06:00 +5°C° 0 mm 4 mps 667 mmHg 68%
    07:00 +7°C° 0 mm 5 mps 668 mmHg 63%
    08:00 +8°C° 0 mm 7 mps 668 mmHg 57%
    09:00 +9°C° 0 mm 8 mps 669 mmHg 52%
    10:00 +10°C° 0 mm 8 mps 669 mmHg 47%
    11:00 +12°C° 0 mm 7 mps 669 mmHg 41%
    12:00 +14°C° 0 mm 7 mps 668 mmHg 36%
    13:00 +14°C° 0 mm 7 mps 668 mmHg 35%
    14:00 +13°C° 0 mm 8 mps 667 mmHg 34%
    15:00 +15°C° 0 mm 8 mps 667 mmHg 33%
    16:00 +14°C° 0 mm 7 mps 666 mmHg 35%
    17:00 +12°C° 0 mm 7 mps 666 mmHg 37%
    18:00 +11°C° 0 mm 7 mps 666 mmHg 39%
    19:00 +11°C° 0 mm 7 mps 666 mmHg 41%
    20:00 +10°C° 0 mm 7 mps 666 mmHg 44%
    21:00 +9°C° 0 mm 8 mps 666 mmHg 46%
    22:00 +9°C° 0 mm 8 mps 666 mmHg 48%
    23:00 +7°C° 0 mm 8 mps 665 mmHg 50%

    31 March, Sunday

    Time Temperature Precipitation Wind Pressure Humidity
    00:00 +7°C° 0 mm 8 mps 665 mmHg 51%
    01:00 +8°C° 0 mm 7 mps 665 mmHg 53%
    02:00 +6°C° 0 mm 7 mps 664 mmHg 55%
    03:00 +7°C° 0 mm 6 mps 664 mmHg 57%
    04:00 +7°C° 2 mm 6 mps 664 mmHg 62%
    05:00 +5°C° 2 mm 6 mps 663 mmHg 67%
    06:00 +5°C° 2 mm 6 mps 663 mmHg 72%
    07:00 +6°C° 0.1 mm 7 mps 663 mmHg 66%
    08:00 +7°C° 0.1 mm 8 mps 664 mmHg 60%
    09:00 +9°C° 0.1 mm 10 mps 664 mmHg 53%
    10:00 +9°C° 0.1 mm 10 mps 664 mmHg 51%
    11:00 +11°C° 0.1 mm 10 mps 664 mmHg 49%
    12:00 +12°C° 0.1 mm 11 mps 663 mmHg 46%
    13:00 +13°C° 0 mm 10 mps 663 mmHg 46%
    14:00 +13°C° 0 mm 10 mps 662 mmHg 45%
    15:00 +13°C° 0 mm 9 mps 662 mmHg 44%
    16:00 +12°C° 0.1 mm 8 mps 662 mmHg 49%
    17:00 +11°C° 0.1 mm 7 mps 661 mmHg 54%
    18:00 +10°C° 0.1 mm 6 mps 661 mmHg 59%
    19:00 +10°C° 0.2 mm 6 mps 662 mmHg 64%
    20:00 +9°C° 0.2 mm 5 mps 662 mmHg 69%
    21:00 +9°C° 0.2 mm 5 mps 662 mmHg 75%
    22:00 +8°C° 0 mm 4 mps 662 mmHg 77%
    23:00 +9°C° 0 mm 3 mps 662 mmHg 79%
    Show more